Location: Pasadena, ca
(34.1243°N, 118.1037°W)
Time: 02:31:37
(UTC-07:00)

ISS - Pass Details

Date: 10 October 2017
Orbit: 401 x 408 km, 51.6° (Epoch: 19 October)

Event Time Altitude Azimuth Distance (km) Brightness Sun altitude
Rises 19:49:18 0° 329° (NNW) 2,325 0.5 -18.4°
Reaches altitude 10° 19:52:17 10° 359° (N) 1,464 -1.0 -19.1°
Enters shadow 19:52:54 12° 9° (N) 1,365 -1.2 -19.2°
